Location: Briarstone Lake
(43.1454°N, 93.2359°W)
Time: 06:36:30
(UTC+00:00)

ARIANE 6 FM1 Upper Stage - Visible Passes

Search period start: 04 October 2024 00:00
Search period end: 14 October 2024 00:00
Orbit: 564 x 594 km, 62.0° (Epoch: 03 October)

Date Brightness Start Highest point End Pass type
(mag) Time Alt. Az. Time Alt. Az. Time Alt. Az.
11 Oct 5.5 02:17:26 10° N 02:17:46 11° N 02:17:46 11° N visible
12 Oct 5.5 02:21:21 10° NNW 02:21:56 12° N 02:21:56 12° N visible
13 Oct 5.4 02:25:23 10° NNW 02:26:06 13° NNW 02:26:06 13° NNW visible
